Flag for Montserrat Weather past 2 weeks in Brades, Montserrat

Now
79 °F

Passing clouds.


Feels Like: 81 °F
Forecast: 78 / 82 °F
Wind: 7 mph from East

Location: Vc Bird International Antigua Airport

Current Time: May 25, 2015 at 9:51:01 PM

Latest Report: May 25, 2015 at 9:00 PM


Visibility: N/A

Pressure: 30.04 "Hg

Humidity: 70%

Dew point: 68 °F

Location of BradesLocation

Historic Weather in Brades — Graph

°F

Brades temperature yesterday

Maximum temperature yesterday: 84 °F (at 9:00 AM)
Minimum temperature yesterday: 79 °F (at 1:00 AM)
Average temperature yesterday: 82 °F

Past Weeks' High & Low Weather Summary

 TemperatureHumidityPressure
High88 °F (May 21, 12:00 PM)89% (May 18, 8:00 PM)30.12 "Hg (May 18, 8:00 PM)
Low77 °F (May 13, 6:00 AM)58% (May 13, 2:00 PM)29.95 "Hg (May 20, 3:00 AM)
Average81 °F72%30.04 "Hg
* Reported May 10 8:00 PM — May 25 8:00 PM, Brades, Weather by CustomWeather, © 2015

Note: Actual official high and low records may vary slightly from our data, if they occured in-between our weather recording intervals... More about our weather records

Advertising

Brades weather history for previous 24 hours

 ConditionsComfort  
Time TempWeatherWind HumidityBarometerVisibility
8:00 PM
Mon, May 25
79 °FPassing clouds.7 mph74%30.04 "HgN/A
7:00 PM79 °FPassing clouds.8 mph74%30.01 "HgN/A
6:00 PM81 °FScattered showers. Passing clouds.9 mph70%30.01 "HgN/A
5:00 PM82 °FPassing clouds.10 mph66%30.01 "HgN/A
4:00 PM84 °FPassing clouds.12 mph62%30.01 "HgN/A
3:00 PM84 °FScattered clouds.13 mph62%30.01 "HgN/A
2:00 PM84 °FScattered clouds.12 mph62%30.01 "HgN/A
1:00 PM84 °FPassing clouds.13 mph58%30.04 "HgN/A
12:00 PM84 °FPassing clouds.13 mph62%30.04 "HgN/A
11:00 AM84 °FPassing clouds.13 mph62%30.07 "HgN/A
10:00 AM82 °FScattered clouds.12 mph66%30.07 "HgN/A
9:00 AM84 °FPassing clouds.12 mph62%30.04 "HgN/A
8:00 AM82 °FScattered clouds.10 mph70%30.04 "HgN/A
7:00 AM81 °FScattered clouds.10 mph74%30.04 "HgN/A
6:00 AM79 °FPartly sunny.10 mph74%30.04 "HgN/A
5:00 AM79 °FPassing clouds.9 mph79%30.01 "HgN/A
4:00 AM77 °FPassing clouds.10 mph79%30.01 "HgN/A
3:00 AM77 °FPassing clouds.10 mph83%30.01 "HgN/A
2:00 AM79 °FPassing clouds.10 mph79%30.01 "HgN/A
1:00 AM77 °FPassing clouds.9 mph83%30.04 "HgN/A
12:17 AM81 °FSprinkles. Passing clouds.9 mph74%30.07 "HgN/A
12:00 AM81 °FRain showers. Passing clouds.9 mph74%30.07 "Hg4 mi
11:00 PM
Sun, May 24
81 °FPassing clouds.10 mph74%30.07 "HgN/A
10:00 PM81 °FPassing clouds.12 mph70%30.07 "HgN/A
9:00 PM81 °FPassing clouds.12 mph70%30.07 "HgN/A
Weather by CustomWeather, © 2015

See weather overviewHow to use our weather pages